Weather History for GEML - March, 2013

Change the Weather History Date:

Monday, March 18, 2013

  Actual Average Record
Temperature  
Mean Temperature 64 °F -  
Max Temperature 68 °F 68 °F 75 °F (1999)
Min Temperature 60 °F 55 °F 48 °F (1997)
Degree Days  
Heating Degree Days 1    
Growing Degree Days 14 (Base 50)    
Moisture  
Dew Point 53 °F    
Average Humidity 65    
Maximum Humidity 82    
Minimum Humidity 48    
Precipitation  
Precipitation 0.00 in 0.06 in - ()
Sea Level Pressure  
Sea Level Pressure 29.81 in    
Wind  
Wind Speed 11 mph ()    
Max Wind Speed 18 mph    
Max Gust Speed 29 mph    
Visibility 6.2 miles    
Events      
Averages and records for this station are not official NWS values.
T = Trace of Precipitation, MM = Missing Value Source: Averaged Metar Reports

Daily Weather History Graph

Daily Weather History Graph

Search for Another Location

Airport or City:

Trip Planner

Search our weather history database for the weather conditions in past years. The results will help you decide how hot, cold, wet, or windy it might be!

Date:

Astronomy

Mar. 18, 2013 Rise Set
Actual Time 7:18 AM CET 7:21 PM CET
Civil Twilight 6:52 AM CET 7:47 PM CET
Nautical Twilight 6:23 AM CET 8:16 PM CET
Astronomical Twilight 5:53 AM CET 8:46 PM CET
Moon 11:18 AM CET (3/18) 12:57 AM CET (3/18)
Length of Visible Light 12h 54m
Length of Day
12h 03m
Waxing Crescent, 38% of the Moon is Illuminated
Mar 18
Waxing Crescent
Mar 19
First Quarter
Mar 27
Full
Apr 3
Last Quarter
Apr 10
New

Hourly Weather History & Observations

Time (CET) Temp. Dew Point Humidity Pressure Visibility Wind Dir Wind Speed Gust Speed Precip Events Conditions
6:00 AM 62.6 °F 55.4 °F 77% 29.74 in 6.2 mi WSW 11.5 mph - N/A   Scattered Clouds
6:30 AM 62.6 °F 55.4 °F 77% 29.77 in 6.2 mi WSW 8.1 mph - N/A   Scattered Clouds
7:00 AM 61 °F 55 °F 73% 29.78 in 6 mi WSW 9.2 mph - -   Mostly Cloudy
7:00 AM 60.8 °F 55.4 °F 82% 29.77 in 6.2 mi WSW 9.2 mph - N/A   Scattered Clouds
7:30 AM 60.8 °F 55.4 °F 82% 29.80 in 6.2 mi SW 5.8 mph - N/A   Scattered Clouds
8:00 AM 60.8 °F 55.4 °F 82% 29.80 in 6.2 mi WSW 6.9 mph 18.4 mph N/A   Scattered Clouds
8:30 AM 62.6 °F 55.4 °F 77% 29.80 in 6.2 mi West 9.2 mph - N/A   Scattered Clouds
9:00 AM 64.4 °F 55.4 °F 73% 29.83 in 6.2 mi WSW 10.4 mph - N/A   Scattered Clouds
9:30 AM 64.4 °F 55.4 °F 73% 29.83 in 6.2 mi West 10.4 mph - N/A   Scattered Clouds
10:00 AM 66.2 °F 53.6 °F 64% 29.83 in 6.2 mi West 11.5 mph - N/A   Scattered Clouds
10:30 AM 66.2 °F 53.6 °F 64% 29.86 in 6.2 mi West 15.0 mph - N/A   Scattered Clouds
11:00 AM 66.2 °F 53.6 °F 64% 29.86 in 6.2 mi West 13.8 mph - N/A   Partly Cloudy
11:30 AM 66.2 °F 53.6 °F 64% 29.86 in 6.2 mi West 12.7 mph - N/A   Partly Cloudy
12:00 PM 66.2 °F 53.6 °F 64% 29.86 in 6.2 mi West 15.0 mph - N/A   Partly Cloudy
12:30 PM 66.2 °F 53.6 °F 64% 29.86 in 6.2 mi West 15.0 mph 26.5 mph N/A   Partly Cloudy
1:00 PM 68 °F 53 °F 48% 29.85 in 31 mi West 12.7 mph - -   Scattered Clouds
1:00 PM 66.2 °F 53.6 °F 64% 29.86 in 6.2 mi West 13.8 mph - N/A   Partly Cloudy
1:30 PM 68.0 °F 51.8 °F 56% 29.83 in 6.2 mi West 11.5 mph - N/A   Partly Cloudy
2:00 PM 68.0 °F 51.8 °F 56% 29.83 in 6.2 mi West 11.5 mph - N/A   Partly Cloudy
2:30 PM 68.0 °F 51.8 °F 56% 29.83 in 6.2 mi West 13.8 mph - N/A   Partly Cloudy
3:00 PM 68.0 °F 51.8 °F 56% 29.80 in 6.2 mi West 16.1 mph - N/A   Partly Cloudy
3:30 PM 66.2 °F 51.8 °F 60% 29.80 in - West 18.4 mph - N/A   Clear
4:00 PM 66.2 °F 51.8 °F 60% 29.80 in - West 16.1 mph - N/A   Clear
4:30 PM 66.2 °F 51.8 °F 60% 29.80 in - West 15.0 mph - N/A   Clear
5:00 PM 66.2 °F 50.0 °F 56% 29.80 in - West 16.1 mph - N/A   Clear
5:30 PM 66.2 °F 51.8 °F 60% 29.80 in - West 16.1 mph 28.8 mph N/A   Clear
6:00 PM 64.4 °F 51.8 °F 64% 29.80 in - WSW 15.0 mph - N/A   Clear
6:30 PM 64.4 °F 50.0 °F 59% 29.80 in 6.2 mi West 16.1 mph 28.8 mph N/A   Partly Cloudy
7:00 PM 62 °F 50 °F 55% 29.81 in 31 mi WSW 16.1 mph - -   Scattered Clouds
7:00 PM 62.6 °F 50.0 °F 63% 29.80 in 6.2 mi WSW 16.1 mph - N/A   Partly Cloudy
7:30 PM 62.6 °F 50.0 °F 63% 29.80 in 6.2 mi WSW 13.8 mph - N/A   Partly Cloudy